QPF
0.00 0.00 0.00 0.00 0.00 0.00 0.00 0.00 0.01 0.01 0.00 0.00 0.00 0.02 0.02 0.10 0.18 0.12 0.09 0.18 0.18 0.19 0.22 0.18 0.11 0.08 0.06 0.05 0.06 0.08 0.08 0.02 0.00 0.00 0.01 0.01 0.01 0.01
0.00 0.00 0.00 0.00 0.00 0.00 0.00 0.00 0.01 0.01 0.01 0.00 0.00 0.00 0.01 0.03 0.10 0.14 0.08 0.14 0.08 0.07 0.08 0.13 0.15 0.09 0.09 0.09 0.08 0.07 0.08 0.08 0.02 0.00 0.00 0.00 0.00 0.01
0.00 0.00 0.00 0.00 0.00 0.00 0.00 0.00 0.01 0.01 0.01 0.00 0.00 0.00 0.02 0.04 0.04 0.06 0.11 0.07 0.05 0.10 0.09 0.07 0.04 0.05 0.07 0.12 0.15 0.08 0.07 0.06 0.06 0.01 0.00 0.00 0.00 0.00
0.00 0.00 0.00 0.00 0.00 0.00 0.00 0.00 0.00 0.00 0.01 0.00 0.00 0.00 0.01 0.05 0.07 0.07 0.04 0.09 0.09 0.12 0.17 0.11 0.05 0.02 0.03 0.06 0.12 0.13 0.09 0.05 0.03 0.02 0.00 0.00 0.00 0.00
0.00 0.00 0.00 0.00 0.00 0.00 0.00 0.00 0.00 0.00 0.00 0.00 0.00 0.00 0.01 0.02 0.04 0.11 0.10 0.06 0.06 0.09 0.12 0.10 0.08 0.04 0.02 0.02 0.06 0.16 0.20 0.11 0.05 0.03 0.00 0.00 0.00 0.00
0.00 0.00 0.00 0.00 0.00 0.00 0.00 0.00 0.00 0.00 0.00 0.00 0.00 0.00 0.01 0.02 0.03 0.07 0.16 0.13 0.05 0.04 0.08 0.15 0.13 0.11 0.04 0.02 0.02 0.09 0.27 0.24 0.14 0.06 0.01 0.00 0.00 0.00
0.00 0.00 0.00 0.00 0.00 0.00 0.00 0.00 0.00 0.00 0.00 0.00 0.00 0.00 0.00 0.02 0.02 0.03 0.08 0.15 0.12 0.10 0.06 0.07 0.13 0.14 0.10 0.07 0.03 0.02 0.05 0.16 0.18 0.13 0.05 0.01 0.00 0.00
0.00 0.00 0.00 0.00 0.00 0.01 0.01 0.01 0.01 0.00 0.00 0.01 0.00 0.00 0.00 0.01 0.02 0.04 0.05 0.10 0.16 0.19 0.15 0.16 0.30 0.39 0.22 0.11 0.07 0.03 0.02 0.07 0.11 0.08 0.04 0.02 0.02 0.00
0.02 0.01 0.00 0.00 0.00 0.00 0.00 0.01 0.01 0.01 0.01 0.02 0.01 0.00 0.00 0.00 0.01 0.02 0.04 0.09 0.16 0.19 0.20 0.19 0.14 0.24 0.26 0.13 0.07 0.03 0.01 0.03 0.10 0.08 0.05 0.02 0.02 0.03
0.01 0.01 0.01 0.01 0.00 0.00 0.00 0.00 0.00 0.00 0.01 0.02 0.02 0.01 0.01 0.00 0.01 0.02 0.03 0.03 0.06 0.18 0.21 0.16 0.20 0.08 0.16 0.21 0.12 0.03 0.01 0.00 0.01 0.09 0.07 0.04 0.04 0.05
0.01 0.01 0.00 0.00 0.00 0.01 0.01 0.02 0.01 0.00 0.00 0.00 0.00 0.00 0.00 0.00 0.00 0.00 0.01 0.02 0.01 0.05 0.21 0.14 0.12 0.15 0.13 0.15 0.11 0.05 0.03 0.01 0.00 0.03 0.11 0.10 0.13 0.12
0.02 0.01 0.00 0.01 0.01 0.01 0.01 0.02 0.02 0.00 0.00 0.00 0.00 0.00 0.00 0.00 0.00 0.01 0.01 0.03 0.03 0.02 0.08 0.18 0.09 0.15 0.22 0.26 0.21 0.14 0.05 0.05 0.05 0.03 0.04 0.13 0.13 0.22
0.04 0.04 0.04 0.03 0.03 0.03 0.05 0.04 0.00 0.00 0.00 0.00 0.00 0.00 0.00 0.00 0.00 0.00 0.00 0.02 0.03 0.02 0.04 0.14 0.10 0.20 0.20 0.29 0.35 0.29 0.20 0.13 0.13 0.12 0.07 0.06 0.11 0.14
0.03 0.02 0.02 0.03 0.06 0.06 0.05 0.06 0.04 0.03 0.02 0.01 0.01 0.01 0.00 0.00 0.00 0.00 0.00 0.01 0.02 0.02 0.02 0.10 0.08 0.19 0.30 0.18 0.20 0.25 0.31 0.31 0.18 0.15 0.09 0.07 0.07 0.12
0.02 0.01 0.01 0.01 0.01 0.02 0.04 0.05 0.05 0.04 0.05 0.03 0.01 0.01 0.01 0.01 0.01 0.01 0.01 0.00 0.01 0.02 0.03 0.05 0.07 0.16 0.30 0.23 0.16 0.13 0.27 0.38 0.27 0.21 0.16 0.07 0.03 0.05
0.01 0.00 0.01 0.01 0.01 0.02 0.01 0.01 0.03 0.05 0.03 0.01 0.01 0.01 0.01 0.01 0.01 0.01 0.01 0.01 0.01 0.01 0.01 0.01 0.04 0.09 0.24 0.23 0.20 0.17 0.14 0.25 0.29 0.25 0.15 0.21 0.09 0.02
0.01 0.00 0.01 0.01 0.01 0.01 0.01 0.01 0.02 0.04 0.07 0.07 0.05 0.02 0.01 0.01 0.01 0.00 0.00 0.00 0.00 0.00 0.00 0.01 0.03 0.05 0.13 0.23 0.25 0.17 0.17 0.17 0.15 0.21 0.14 0.11 0.19 0.10
0.01 0.01 0.01 0.01 0.01 0.01 0.01 0.01 0.01 0.01 0.02 0.02 0.01 0.02 0.01 0.00 0.01 0.01 0.01 0.00 0.00 0.00 0.00 0.01 0.03 0.05 0.07 0.12 0.18 0.13 0.11 0.12 0.12 0.21 0.21 0.13 0.05 0.07
0.00 0.01 0.02 0.02 0.02 0.02 0.02 0.01 0.01 0.01 0.01 0.01 0.00 0.00 0.00 0.00 0.00 0.00 0.01 0.01 0.01 0.00 0.00 0.00 0.02 0.04 0.04 0.05 0.05 0.06 0.11 0.14 0.16 0.22 0.29 0.28 0.12 0.04
0.00 0.01 0.01 0.02 0.02 0.02 0.02 0.02 0.02 0.02 0.02 0.01 0.01 0.00 0.00 0.00 0.00 0.00 0.00 0.01 0.01 0.01 0.01 0.00 0.01 0.02 0.02 0.01 0.02 0.06 0.11 0.18 0.24 0.24 0.24 0.29 0.20 0.13
0.00 0.00 0.01 0.02 0.02 0.02 0.02 0.02 0.03 0.03 0.03 0.02 0.01 0.01 0.01 0.01 0.01 0.00 0.00 0.00 0.01 0.01 0.01 0.00 0.00 0.00 0.01 0.01 0.01 0.03 0.07 0.14 0.18 0.21 0.16 0.17 0.15 0.12
0.00 0.00 0.00 0.01 0.02 0.02 0.02 0.02 0.02 0.02 0.03 0.03 0.02 0.02 0.01 0.01 0.01 0.01 0.01 0.01 0.00 0.00 0.00 0.00 0.00 0.00 0.01 0.02 0.01 0.01 0.01 0.03 0.12 0.18 0.15 0.11 0.07 0.07
0.01 0.00 0.00 0.00 0.01 0.01 0.02 0.01 0.02 0.02 0.02 0.02 0.02 0.02 0.02 0.02 0.01 0.01 0.01 0.01 0.01 0.00 0.00 0.00 0.00 0.01 0.01 0.01 0.02 0.01 0.01 0.01 0.03 0.07 0.09 0.07 0.04 0.03
MSLP
1018.60 1018.18 1017.77 1017.37 1017.15 1016.79 1016.40 1016.06 1015.59 1014.31 1012.50 1011.56 1010.72 1010.16 1010.11 1010.24 1010.09 1009.17 1008.51 1008.50 1006.74 1006.57 1006.19 1004.34 1005.27 1006.12 1006.94 1007.94 1008.86 1009.63 1010.42 1011.26 1012.16 1013.03 1013.86 1014.66 1015.85 1016.53
1018.05 1017.58 1017.11 1016.82 1016.55 1016.22 1015.91 1015.61 1015.33 1014.82 1012.96 1012.14 1011.21 1010.62 1010.27 1009.90 1009.27 1009.53 1009.11 1008.52 1007.27 1006.93 1005.67 1005.10 1004.24 1004.96 1005.84 1006.72 1007.66 1008.26 1009.26 1010.09 1011.07 1012.14 1013.01 1013.79 1014.94 1015.70
1017.36 1016.95 1016.42 1016.18 1015.84 1015.46 1015.13 1014.78 1014.38 1013.96 1012.63 1010.96 1011.10 1010.78 1010.42 1009.71 1009.24 1009.18 1008.20 1007.15 1006.42 1006.44 1005.39 1004.65 1003.90 1003.72 1004.70 1005.47 1006.39 1007.51 1008.31 1009.15 1010.12 1011.13 1012.09 1012.90 1013.95 1014.81
1016.30 1016.06 1015.58 1015.37 1014.97 1014.79 1014.41 1013.91 1013.58 1013.31 1012.72 1011.37 1010.78 1010.38 1010.08 1009.29 1008.30 1008.22 1007.90 1007.90 1006.87 1006.28 1004.76 1004.58 1004.03 1002.95 1003.42 1004.29 1005.27 1006.32 1007.09 1008.22 1008.89 1010.07 1011.06 1011.97 1013.07 1013.82
1015.18 1014.93 1014.62 1014.42 1014.05 1013.85 1013.56 1013.11 1012.67 1012.34 1011.94 1011.30 1009.98 1010.10 1009.44 1009.16 1008.66 1007.66 1006.69 1006.32 1006.12 1005.84 1003.55 1003.58 1002.34 1001.76 1001.89 1002.97 1003.99 1004.93 1005.96 1006.85 1007.73 1009.03 1010.05 1011.15 1012.13 1012.94
1013.84 1013.71 1013.56 1013.39 1013.11 1012.92 1012.66 1012.32 1011.94 1011.55 1011.17 1010.69 1009.71 1009.56 1009.01 1007.77 1007.08 1006.64 1005.19 1005.62 1005.56 1004.20 1004.05 1002.57 1001.98 1000.94 1000.78 1001.79 1002.71 1003.41 1005.06 1005.39 1006.59 1007.92 1008.92 1010.37 1011.27 1011.89
1012.34 1012.24 1012.18 1012.11 1011.96 1011.81 1011.64 1011.37 1011.22 1010.85 1010.41 1009.96 1009.32 1009.10 1008.60 1007.80 1007.12 1006.80 1006.76 1006.06 1004.90 1004.16 1003.57 1002.70 1003.21 1000.58 1000.05 1000.82 1001.78 1002.65 1003.64 1004.59 1005.37 1006.43 1007.52 1009.46 1010.11 1010.84
1010.36 1010.36 1010.40 1010.45 1010.35 1010.33 1010.27 1010.24 1010.22 1009.99 1009.54 1009.25 1008.89 1008.15 1007.90 1007.30 1006.28 1005.59 1004.88 1005.06 1004.50 1005.21 1004.59 1003.81 1002.99 1001.59 1000.14 999.68 1000.45 1001.50 1002.48 1003.38 1004.44 1005.30 1006.53 1007.83 1008.70 1009.78
1008.65 1008.70 1008.63 1008.57 1008.74 1008.85 1008.87 1008.69 1008.69 1008.58 1008.49 1008.67 1008.22 1007.44 1007.05 1006.99 1007.06 1006.80 1006.01 1005.75 1005.25 1004.58 1004.48 1003.38 1003.06 1002.18 1000.62 999.38 999.23 1000.31 1001.37 1002.24 1003.41 1004.21 1005.29 1006.70 1007.46 1008.74
1007.23 1007.26 1007.33 1007.31 1007.36 1007.46 1007.61 1007.56 1007.49 1007.46 1007.37 1007.17 1006.86 1006.60 1006.38 1006.02 1006.13 1006.66 1006.53 1006.42 1005.65 1005.19 1005.42 1004.35 1002.78 1001.80 1000.12 999.59 998.87 998.69 999.86 1001.11 1002.17 1003.30 1004.51 1005.38 1006.66 1007.65
1006.49 1006.42 1006.32 1006.18 1006.03 1006.09 1006.30 1006.44 1006.32 1006.15 1006.16 1005.99 1005.76 1005.53 1005.41 1005.14 1004.79 1004.57 1005.16 1005.39 1004.66 1004.43 1004.55 1003.59 1001.64 1002.62 999.97 998.78 997.90 997.17 998.53 999.74 1000.90 1002.19 1003.22 1004.48 1005.53 1006.66
1005.78 1005.44 1005.01 1004.90 1004.95 1004.93 1005.19 1005.36 1005.29 1005.01 1005.13 1004.97 1004.71 1004.47 1004.38 1004.46 1004.51 1004.32 1004.09 1004.39 1004.53 1004.01 1002.42 1002.78 1001.74 1002.00 1000.09 999.49 998.33 997.29 997.74 998.76 999.95 1000.64 1001.98 1003.21 1004.32 1005.59
1005.79 1005.08 1004.66 1004.14 1003.74 1003.65 1003.73 1003.94 1003.93 1004.00 1004.00 1003.87 1003.77 1003.57 1003.52 1003.32 1003.24 1003.13 1002.73 1002.50 1002.43 1002.50 1002.49 1002.60 1002.92 1002.16 1001.43 1000.94 999.46 998.71 998.08 997.56 998.53 999.80 1000.70 1001.98 1002.94 1003.94
1005.72 1005.12 1004.66 1004.05 1003.33 1002.80 1002.40 1002.44 1002.60 1002.87 1002.98 1002.93 1002.78 1002.49 1002.30 1002.17 1002.09 1002.09 1001.98 1001.91 1001.91 1001.98 1001.70 1002.16 1002.66 1001.18 1002.07 1001.50 1001.03 999.54 998.86 998.53 997.37 997.95 999.27 1000.63 1001.65 1002.56
1005.70 1005.01 1004.36 1003.83 1003.25 1002.67 1001.97 1001.71 1001.81 1001.61 1001.71 1001.80 1001.80 1001.65 1001.30 1001.13 1001.17 1001.28 1001.43 1001.64 1001.84 1002.00 1002.28 1002.10 1001.62 1001.42 1001.88 1002.23 1001.78 1000.55 999.91 998.40 998.46 996.67 997.94 999.14 999.98 1001.31
1005.53 1004.89 1004.34 1003.79 1003.28 1002.74 1002.20 1001.83 1001.52 1001.20 1000.59 1000.61 1000.58 1000.62 1000.51 1000.63 1000.73 1000.76 1001.17 1001.20 1001.28 1001.33 1001.26 1001.38 1001.77 1001.81 1002.23 1002.25 1001.38 1000.30 1000.38 999.95 998.66 997.35 996.69 998.03 999.11 1000.08
1005.50 1004.99 1004.50 1003.99 1003.46 1002.98 1002.55 1002.13 1001.69 1001.20 1000.73 1000.00 999.91 999.95 999.95 1000.06 1000.07 1000.13 1000.30 1000.75 1001.07 1001.03 1001.36 1001.60 1001.18 1001.66 1001.02 1000.52 1000.35 1000.32 1000.21 999.74 998.89 998.80 996.82 997.21 997.68 998.83
1005.73 1005.36 1004.85 1004.39 1003.89 1003.38 1002.86 1002.37 1001.93 1001.46 1001.07 1000.67 1000.25 999.96 999.84 999.84 999.85 999.78 999.65 999.64 1000.22 1000.84 1000.70 1000.77 1001.27 1000.61 999.86 999.54 999.61 999.56 999.66 999.35 998.41 998.69 997.89 997.07 997.61 998.09
1006.14 1005.70 1005.24 1004.75 1004.27 1003.75 1003.22 1002.72 1002.16 1001.78 1001.40 1000.97 1000.63 1000.29 1000.07 1000.04 999.98 999.91 999.64 999.14 998.41 998.13 998.41 997.97 997.58 998.63 998.56 998.65 998.85 999.23 999.09 998.58 998.14 998.20 998.21 997.84 997.62 997.68
1006.46 1006.04 1005.50 1005.02 1004.50 1004.00 1003.46 1002.92 1002.39 1001.90 1001.47 1001.04 1000.66 1000.34 1000.03 1000.00 999.85 999.66 999.65 999.40 998.86 998.53 998.44 998.62 999.10 998.75 998.46 998.89 998.82 998.17 998.15 997.90 998.09 998.33 998.60 998.91 998.66 998.10
1006.63 1006.13 1005.64 1005.10 1004.56 1004.06 1003.52 1002.96 1002.44 1001.92 1001.38 1000.93 1000.53 1000.17 999.89 999.54 999.34 999.24 999.15 999.10 999.18 998.74 998.14 997.72 997.73 997.96 998.22 999.15 998.71 997.96 998.19 997.45 997.24 997.58 998.22 998.90 998.85 998.91
1006.71 1006.18 1005.61 1005.06 1004.47 1003.90 1003.34 1002.80 1002.23 1001.70 1001.19 1000.73 1000.27 999.90 999.52 999.19 998.74 998.62 998.59 998.41 998.42 998.41 997.96 997.65 997.44 997.89 998.82 998.32 997.40 997.52 997.58 997.39 996.84 996.81 997.08 997.67 998.17 998.55
1006.79 1006.18 1005.54 1004.93 1004.30 1003.66 1003.07 1002.49 1001.94 1001.34 1000.82 1000.31 999.80 999.34 998.94 998.47 998.09 997.69 997.54 997.56 997.52 997.43 997.43 997.29 997.59 996.94 996.10 996.09 996.46 996.80 996.65 996.91 996.76 997.20 997.91 998.41 998.25 997.80
Thickness
5241 5247 5253 5259 5263 5270 5278 5287 5304 5332 5365 5396 5419 5441 5459 5476 5492 5512 5529 5542 5571 5584 5597 5623 5624 5626 5627 5627 5629 5629 5629 5630 5632 5630 5629 5629 5625 5624
5224 5230 5238 5245 5250 5258 5266 5273 5282 5298 5331 5358 5384 5409 5432 5452 5472 5487 5503 5524 5546 5564 5586 5603 5619 5621 5622 5625 5625 5628 5629 5632 5629 5624 5625 5625 5621 5621
5208 5213 5222 5228 5236 5244 5253 5263 5272 5282 5309 5341 5356 5380 5403 5429 5449 5463 5489 5515 5535 5547 5570 5586 5604 5614 5617 5620 5622 5621 5624 5626 5626 5623 5622 5622 5618 5618
5197 5200 5209 5214 5223 5230 5239 5251 5260 5270 5283 5309 5333 5353 5378 5403 5432 5453 5471 5487 5513 5529 5554 5566 5586 5608 5613 5612 5614 5616 5621 5619 5624 5620 5617 5618 5614 5616
5186 5190 5197 5202 5211 5218 5226 5238 5250 5261 5272 5288 5318 5330 5355 5380 5405 5432 5460 5482 5502 5513 5548 5560 5586 5603 5613 5612 5612 5613 5614 5618 5620 5616 5615 5610 5610 5611
5181 5184 5188 5193 5199 5206 5214 5225 5237 5247 5260 5275 5300 5314 5335 5368 5393 5418 5451 5466 5483 5508 5525 5553 5573 5593 5606 5606 5609 5614 5609 5615 5614 5611 5610 5603 5606 5609
5184 5185 5187 5189 5193 5198 5204 5214 5223 5235 5248 5263 5284 5298 5316 5343 5371 5396 5418 5440 5466 5489 5515 5535 5545 5581 5596 5600 5602 5606 5607 5607 5611 5608 5608 5599 5602 5604
5192 5191 5190 5190 5192 5195 5201 5207 5214 5224 5238 5251 5268 5289 5305 5328 5358 5384 5409 5427 5456 5462 5484 5507 5529 5554 5577 5594 5599 5601 5603 5605 5605 5606 5603 5601 5602 5600
5198 5196 5196 5196 5193 5193 5196 5204 5211 5221 5231 5240 5258 5280 5298 5312 5336 5358 5383 5405 5428 5450 5467 5495 5512 5534 5558 5582 5592 5595 5596 5598 5597 5600 5601 5598 5600 5597
5206 5203 5200 5198 5196 5195 5195 5199 5207 5215 5226 5240 5258 5272 5288 5308 5325 5341 5357 5378 5410 5431 5442 5469 5498 5519 5545 5562 5579 5593 5591 5592 5594 5593 5592 5596 5593 5592
5209 5205 5204 5203 5203 5202 5201 5202 5208 5217 5226 5238 5253 5267 5279 5296 5317 5337 5354 5370 5397 5417 5432 5459 5492 5492 5529 5558 5577 5590 5588 5589 5591 5589 5588 5587 5588 5587
5212 5211 5212 5211 5209 5209 5208 5208 5213 5221 5227 5239 5252 5264 5275 5286 5298 5321 5345 5364 5373 5396 5431 5445 5467 5479 5510 5531 5556 5575 5581 5583 5586 5588 5584 5585 5585 5582
5208 5212 5213 5215 5217 5217 5218 5218 5221 5225 5232 5242 5251 5262 5273 5285 5295 5314 5337 5360 5374 5387 5409 5423 5434 5455 5475 5497 5523 5546 5566 5580 5583 5581 5581 5579 5582 5583
5204 5207 5209 5213 5218 5222 5226 5228 5229 5230 5235 5242 5251 5262 5273 5283 5292 5304 5325 5343 5360 5377 5395 5411 5418 5446 5454 5475 5495 5523 5542 5558 5578 5582 5581 5578 5577 5579
5200 5204 5207 5210 5215 5219 5226 5229 5230 5236 5239 5244 5250 5258 5270 5280 5288 5297 5312 5328 5343 5361 5375 5396 5417 5430 5441 5454 5473 5498 5521 5543 5550 5577 5577 5576 5579 5577
5197 5200 5203 5206 5209 5214 5220 5224 5228 5233 5243 5248 5254 5258 5265 5274 5281 5288 5297 5315 5331 5349 5367 5386 5397 5411 5423 5437 5458 5483 5497 5512 5536 5556 5574 5572 5573 5574
5194 5195 5197 5200 5204 5207 5211 5216 5221 5227 5234 5246 5252 5256 5262 5267 5276 5282 5293 5299 5317 5334 5346 5361 5381 5391 5413 5435 5454 5470 5484 5501 5522 5530 5557 5566 5572 5573
5188 5188 5190 5193 5196 5199 5203 5208 5213 5219 5224 5231 5240 5248 5253 5258 5265 5272 5284 5298 5310 5314 5334 5352 5363 5384 5407 5429 5447 5461 5476 5492 5510 5515 5531 5554 5560 5565
5181 5182 5184 5186 5188 5192 5196 5200 5205 5210 5215 5221 5228 5235 5242 5247 5253 5260 5270 5287 5310 5327 5340 5359 5381 5394 5409 5428 5439 5447 5463 5484 5494 5505 5514 5528 5550 5555
5175 5176 5179 5180 5183 5185 5189 5193 5198 5203 5208 5214 5220 5226 5233 5238 5243 5251 5256 5269 5287 5306 5326 5345 5358 5378 5395 5408 5422 5441 5456 5472 5484 5494 5499 5506 5519 5536
5169 5172 5175 5177 5179 5181 5184 5189 5193 5197 5203 5208 5214 5219 5225 5233 5240 5245 5252 5261 5269 5286 5312 5338 5355 5364 5375 5381 5408 5432 5444 5461 5475 5483 5486 5490 5501 5512
5164 5168 5171 5174 5177 5179 5182 5186 5190 5195 5199 5204 5209 5215 5220 5227 5236 5242 5247 5255 5264 5274 5295 5313 5332 5344 5353 5379 5404 5419 5431 5445 5461 5472 5479 5482 5492 5504
5159 5163 5167 5171 5174 5178 5181 5184 5188 5193 5197 5202 5208 5213 5219 5225 5232 5240 5247 5253 5260 5271 5283 5298 5310 5335 5365 5383 5394 5406 5423 5433 5445 5458 5458 5464 5477 5494